Find SITRO-AIS-23

NORAD ID: 61742 Int'l Des: 2024-199 Owner: SITRO Country: RU Constellation: sitronics operational
LEOCIRCULARRETROGRADE

現在のビュー

3D地球を読み込み中...

SITRO-AIS-23について

説明を読み込み中...

次回通過

Passes for default location (London). Set your location on the main map for personalized predictions.

高度履歴

Loading altitude history...

軌道要素

1 61742U 24199H 26159.12733399 .00002413 00000-0 22009-3 0 9991
2 61742 97.3259 357.7639 0013971 93.3157 266.9663 14.95892555130416
Epoch: Jun 8, 2026 • Age: 5 hours

現在のステータス

高度 582.6 km
速度 7.58 km/s
衛星直下点 72.19°N, 179.51°E
打ち上げ日 Nov 4, 2024
運用期間 1.5 years
タイプ other

技術仕様

分類 Payload
質量 3.00 kg
乾燥質量 3.00 kg
総質量 3.00 kg
長さ 0.30 m
直径 0.10 m
スパン 0.30 m
形状 Box
製造者 SPUT
バスタイプ Cubesat 3U
フェーズステータス In Orbit
所有者/国 SITRO/RU

Most Searched